Lafayette, LA

10:20 AM CST on January 16, 2017 (GMT -0600)
Lafayette Regional

Weather History for KLFT - November, 2012

Change the Weather History Date:

Tuesday, November 6, 2012

  Actual Average Record
Temperature  
Mean Temperature 59 °F 64 °F  
Max Temperature 69 °F 75 °F 89 °F (2015)
Min Temperature 49 °F 54 °F 32 °F (1954)
Degree Days  
Heating Degree Days 6 4  
Month to date heating degree days 6 19  
Since 1 July heating degree days 53 55  
Growing Degree Days 10 (Base 50)    
Moisture  
Dew Point 52 °F    
Average Humidity 71    
Maximum Humidity 100    
Minimum Humidity 42    
Precipitation  
Precipitation 0.00 in 0.15 in 1.77 in (2015)
Month to date precipitation 0.54 0.95  
Year to date precipitation 58.53 51.52  
Snow  
Snow 0.00 in 0.00 in 0.00 in ()
Month to date snowfall 0.0 0.0  
Since 1 July snowfall 0.0 0.0  
Since 1 September snowfall 0.0 0.0  
Snow Depth 0.00 in    
Sea Level Pressure  
Sea Level Pressure 30.04 in    
Wind  
Wind Speed 5 mph (NNW)    
Max Wind Speed 17 mph    
Max Gust Speed 21 mph    
Visibility 5 miles    
Events Fog    
T = Trace of Precipitation, MM = Missing Value Source: NWS Daily Summary

Daily Weather History Graph

Daily Weather History Graph

Search for Another Location

Airport or City:

Trip Planner

Search our weather history database for the weather conditions in past years. The results will help you decide how hot, cold, wet, or windy it might be!

Date:

Astronomy

Nov. 06, 2012 Rise Set
Actual Time 6:26 AM CST 5:16 PM CST
Civil Twilight 6:01 AM CST 5:41 PM CST
Nautical Twilight 5:32 AM CST 6:09 PM CST
Astronomical Twilight 5:04 AM CST 6:38 PM CST
Moon 11:50 PM CST (11/6) 12:22 PM CST (11/6)
Length of Visible Light 11h 39m
Length of Day
10h 49m
Waning Gibbous, 53% of the Moon is Illuminated
Nov 6
Waning Gibbous
Nov 6
Last Quarter
Nov 13
New
Nov 20
First Quarter
Nov 28
Full

Hourly Weather History & Observations

Time (CST) Temp. Dew Point Humidity Pressure Visibility Wind Dir Wind Speed Gust Speed Precip Events Conditions
12:53 AM 59.0 °F 57.0 °F 93% 29.99 in 5.0 mi Calm Calm - N/A   Clear
1:51 AM 55.4 °F 55.4 °F 100% 29.99 in 1.8 mi Calm Calm - N/A   Clear
1:53 AM 55.9 °F 55.0 °F 97% 29.99 in 1.0 mi Calm Calm - N/A   Clear
2:00 AM 55.4 °F 53.6 °F 94% 29.99 in 0.5 mi Calm Calm - 0.01 in Fog Fog
2:03 AM 55.4 °F 53.6 °F 94% 29.99 in 0.2 mi Calm Calm - 0.01 in Fog Fog
2:53 AM 55.0 °F 54.0 °F 96% 30.00 in 0.5 mi Calm Calm - 0.01 in Fog Fog
3:10 AM 53.6 °F 53.6 °F 100% 30.00 in 0.2 mi Calm Calm - N/A Fog Fog
3:19 AM 53.6 °F 51.8 °F 94% 30.00 in 0.2 mi Calm Calm - N/A Fog Fog
3:51 AM 53.6 °F 53.6 °F 100% 30.01 in 0.2 mi Calm Calm - N/A Fog Fog
3:53 AM 54.0 °F 53.1 °F 97% 30.01 in 0.2 mi Calm Calm - N/A Fog Fog
4:53 AM 53.1 °F 52.0 °F 96% 30.01 in 0.2 mi Calm Calm - N/A Fog Fog
5:36 AM 55.4 °F 53.6 °F 94% 30.03 in 0.2 mi NNW 6.9 mph - N/A Fog Fog
5:53 AM 54.0 °F 53.1 °F 97% 30.03 in 0.5 mi North 5.8 mph - N/A Fog Fog
6:09 AM 53.6 °F 53.6 °F 100% 30.04 in 0.2 mi North 4.6 mph - N/A Fog Fog
6:53 AM 55.0 °F 54.0 °F 96% 30.05 in 0.2 mi North 8.1 mph - N/A Fog Fog
7:18 AM 55.4 °F 53.6 °F 94% 30.06 in 0.5 mi North 9.2 mph - N/A Fog Fog
7:31 AM 55.4 °F 53.6 °F 94% 30.07 in 2.0 mi North 4.6 mph - N/A   Overcast
7:39 AM 55.4 °F 53.6 °F 94% 30.07 in 3.0 mi North 6.9 mph - N/A   Overcast
7:46 AM 55.4 °F 53.6 °F 94% 30.07 in 4.0 mi NNW 5.8 mph - N/A   Overcast
7:53 AM 55.0 °F 54.0 °F 96% 30.07 in 4.0 mi North 5.8 mph - N/A   Overcast
8:50 AM 57.2 °F 53.6 °F 88% 30.09 in 5.0 mi North 8.1 mph - N/A   Overcast
8:53 AM 57.9 °F 54.0 °F 87% 30.09 in 5.0 mi NNW 6.9 mph - N/A   Overcast
9:41 AM 60.8 °F 53.6 °F 77% 30.08 in 7.0 mi NNW 6.9 mph - N/A   Overcast
9:53 AM 60.1 °F 53.1 °F 78% 30.08 in 8.0 mi North 8.1 mph - N/A   Overcast
10:53 AM 63.0 °F 53.1 °F 70% 30.08 in 10.0 mi NNW 8.1 mph - N/A   Overcast
11:26 AM 64.4 °F 51.8 °F 64% 30.06 in 10.0 mi NW 6.9 mph - N/A   Mostly Cloudy
11:53 AM 66.9 °F 50.0 °F 54% 30.05 in 10.0 mi NW 9.2 mph - N/A   Mostly Cloudy
12:53 PM 66.9 °F 48.0 °F 51% 30.03 in 10.0 mi NNW 8.1 mph 16.1 mph N/A   Mostly Cloudy
1:53 PM 68.0 °F 46.0 °F 45% 30.02 in 10.0 mi NW 11.5 mph 18.4 mph N/A   Partly Cloudy
2:53 PM 68.0 °F 45.0 °F 43% 30.02 in 10.0 mi NNW 10.4 mph 19.6 mph N/A   Clear
3:53 PM 66.9 °F 46.0 °F 47% 30.02 in 10.0 mi NW 9.2 mph - N/A   Clear
4:53 PM 64.9 °F 46.9 °F 52% 30.03 in 10.0 mi North 9.2 mph - N/A   Clear
5:53 PM 62.1 °F 46.9 °F 58% 30.05 in 10.0 mi NW 8.1 mph - N/A   Clear
6:53 PM 59.0 °F 46.9 °F 64% 30.07 in 10.0 mi NNW 6.9 mph - N/A   Clear
7:53 PM 55.0 °F 46.9 °F 74% 30.09 in 10.0 mi Calm Calm - N/A   Clear
8:53 PM 54.0 °F 50.0 °F 86% 30.09 in 10.0 mi Calm Calm - N/A   Clear
9:53 PM 53.1 °F 48.9 °F 86% 30.10 in 9.0 mi Calm Calm - N/A   Clear
10:53 PM 52.0 °F 48.0 °F 86% 30.10 in 10.0 mi Calm Calm - N/A   Clear
11:53 PM 48.9 °F 46.9 °F 93% 30.10 in 9.0 mi Calm Calm - N/A   Clear